Time,TemperatureF,DewpointF,PressureIn,WindDirection,WindDirectionDegrees,WindSpeedMPH,WindSpeedGustMPH,Humidity,HourlyPrecipIn,Conditions,Clouds,dailyrainin,SoftwareType,DateUTC
2013-01-13 00:01:00,31.0,25.0,30.17,ENE,68,0.0,1.0,78,0.00,,,0.01,,2013-01-13 08:01:00,
2013-01-13 00:11:00,31.0,25.0,30.17,ENE,68,0.0,1.0,78,0.00,,,0.01,,2013-01-13 08:11:00,
2013-01-13 00:22:00,31.0,26.0,30.18,ENE,68,0.0,1.0,80,0.00,,,0.01,,2013-01-13 08:22:00,
2013-01-13 00:32:00,31.0,25.0,30.17,ENE,68,0.0,1.0,79,0.00,,,0.01,,2013-01-13 08:32:00,
2013-01-13 00:42:00,31.0,25.0,30.17,ENE,68,0.0,1.0,79,0.00,,,0.01,,2013-01-13 08:42:00,
2013-01-13 00:52:00,30.0,24.0,30.18,ENE,68,0.0,0.0,79,0.00,,,0.01,,2013-01-13 08:52:00,
2013-01-13 01:02:00,30.0,25.0,30.17,ENE,68,0.0,2.0,80,0.00,,,0.01,,2013-01-13 09:02:00,
2013-01-13 01:11:00,30.0,25.0,30.17,East,80,1.0,3.0,80,0.00,,,0.00,,2013-01-13 09:11:00,
2013-01-13 01:22:00,30.0,25.0,30.17,East,80,1.0,3.0,80,0.00,,,0.00,,2013-01-13 09:22:00,
2013-01-13 01:32:00,30.0,25.0,30.17,East,80,0.0,2.0,80,0.00,,,0.00,,2013-01-13 09:32:00,
2013-01-13 01:42:00,30.0,25.0,30.17,East,80,0.0,2.0,80,0.00,,,0.00,,2013-01-13 09:42:00,
2013-01-13 01:52:00,30.0,24.0,30.18,East,80,0.0,0.0,79,0.00,,,0.00,,2013-01-13 09:52:00,
2013-01-13 02:02:00,30.0,25.0,30.19,East,80,0.0,1.0,80,0.00,,,0.00,,2013-01-13 10:02:00,
2013-01-13 02:11:00,30.0,25.0,30.19,East,80,0.0,1.0,80,0.00,,,0.00,,2013-01-13 10:11:00,
2013-01-13 02:22:00,30.0,24.0,30.19,East,80,0.0,2.0,79,0.00,,,0.00,,2013-01-13 10:22:00,
2013-01-13 02:32:00,30.0,24.0,30.19,East,80,2.0,3.0,78,0.00,,,0.00,,2013-01-13 10:32:00,
2013-01-13 02:42:00,30.0,24.0,30.19,East,80,2.0,3.0,78,0.00,,,0.00,,2013-01-13 10:42:00,
2013-01-13 02:52:00,30.0,24.0,30.19,ENE,78,0.0,3.0,78,0.00,,,0.00,,2013-01-13 10:52:00,
2013-01-13 03:02:00,29.0,23.0,30.18,East,80,1.0,3.0,78,0.00,,,0.00,,2013-01-13 11:02:00,
2013-01-13 03:11:00,29.0,23.0,30.18,East,80,1.0,3.0,78,0.00,,,0.00,,2013-01-13 11:11:00,
2013-01-13 03:22:00,29.0,23.0,30.18,East,81,1.0,2.0,78,0.00,,,0.00,,2013-01-13 11:22:00,
2013-01-13 03:32:00,30.0,24.0,30.18,East,92,0.0,3.0,77,0.00,,,0.00,,2013-01-13 11:32:00,
2013-01-13 03:42:00,30.0,24.0,30.18,East,92,0.0,3.0,77,0.00,,,0.00,,2013-01-13 11:42:00,
2013-01-13 03:52:00,29.0,22.0,30.18,East,92,0.0,1.0,76,0.00,,,0.00,,2013-01-13 11:52:00,
2013-01-13 04:02:00,29.0,23.0,30.18,East,92,0.0,1.0,77,0.00,,,0.00,,2013-01-13 12:02:00,
2013-01-13 04:12:00,29.0,23.0,30.18,East,92,0.0,1.0,77,0.00,,,0.00,,2013-01-13 12:12:00,
2013-01-13 04:22:00,28.0,22.0,30.19,East,92,0.0,2.0,79,0.00,,,0.00,,2013-01-13 12:22:00,
2013-01-13 04:32:00,28.0,22.0,30.19,East,92,0.0,0.0,79,0.00,,,0.00,,2013-01-13 12:32:00,
2013-01-13 04:42:00,28.0,22.0,30.19,East,92,0.0,0.0,79,0.00,,,0.00,,2013-01-13 12:42:00,
2013-01-13 04:53:00,27.0,22.0,30.18,East,92,0.0,1.0,81,0.00,,,0.00,,2013-01-13 12:53:00,
2013-01-13 05:02:00,27.0,22.0,30.18,East,92,1.0,2.0,82,0.00,,,0.00,,2013-01-13 13:02:00,
2013-01-13 05:12:00,27.0,22.0,30.18,East,92,1.0,2.0,82,0.00,,,0.00,,2013-01-13 13:12:00,
2013-01-13 05:22:00,27.0,22.0,30.19,East,92,0.0,2.0,81,0.00,,,0.00,,2013-01-13 13:22:00,
2013-01-13 05:32:00,27.0,22.0,30.19,NNW,333,0.0,3.0,82,0.00,,,0.00,,2013-01-13 13:32:00,
2013-01-13 05:42:00,27.0,22.0,30.19,NNW,333,0.0,3.0,82,0.00,,,0.00,,2013-01-13 13:42:00,
2013-01-13 05:53:00,27.0,22.0,30.20,NNW,334,1.0,2.0,82,0.00,,,0.00,,2013-01-13 13:53:00,
2013-01-13 06:02:00,27.0,22.0,30.20,NNE,22,0.0,2.0,82,0.00,,,0.00,,2013-01-13 14:02:00,
2013-01-13 06:12:00,27.0,22.0,30.20,NNE,22,0.0,2.0,82,0.00,,,0.00,,2013-01-13 14:12:00,
2013-01-13 06:22:00,27.0,22.0,30.20,North,355,0.0,1.0,81,0.00,,,0.00,,2013-01-13 14:22:00,
2013-01-13 06:32:00,26.0,21.0,30.21,North,360,0.0,1.0,82,0.00,,,0.00,,2013-01-13 14:32:00,
2013-01-13 06:42:00,26.0,21.0,30.21,North,360,0.0,1.0,82,0.00,,,0.00,,2013-01-13 14:42:00,
2013-01-13 06:53:00,26.0,21.0,30.20,North,360,0.0,0.0,82,0.00,,,0.00,,2013-01-13 14:53:00,
2013-01-13 07:02:00,26.0,21.0,30.21,North,360,0.0,1.0,82,0.00,,,0.00,,2013-01-13 15:02:00,
2013-01-13 07:12:00,26.0,21.0,30.21,North,360,0.0,1.0,82,0.00,,,0.00,,2013-01-13 15:12:00,
2013-01-13 07:22:00,26.0,22.0,30.22,North,360,0.0,2.0,83,0.00,,,0.00,,2013-01-13 15:22:00,
2013-01-13 07:33:00,25.0,21.0,30.22,North,360,0.0,0.0,83,0.00,,,0.00,,2013-01-13 15:33:00,
2013-01-13 07:42:00,25.0,21.0,30.22,North,360,0.0,0.0,83,0.00,,,0.00,,2013-01-13 15:42:00,
2013-01-13 07:52:00,25.0,21.0,30.22,North,360,0.0,2.0,84,0.00,,,0.00,,2013-01-13 15:52:00,
2013-01-13 08:02:00,25.0,21.0,30.22,North,360,0.0,1.0,84,0.00,,,0.00,,2013-01-13 16:02:00,
2013-01-13 08:12:00,25.0,21.0,30.22,North,360,0.0,1.0,84,0.00,,,0.00,,2013-01-13 16:12:00,
2013-01-13 08:22:00,26.0,22.0,30.22,North,360,0.0,1.0,84,0.00,,,0.00,,2013-01-13 16:22:00,
2013-01-13 08:33:00,26.0,22.0,30.23,North,360,1.0,2.0,84,0.00,,,0.00,,2013-01-13 16:33:00,
2013-01-13 08:42:00,26.0,22.0,30.23,North,360,1.0,2.0,84,0.00,,,0.00,,2013-01-13 16:42:00,
2013-01-13 08:53:00,28.0,25.0,30.24,North,355,0.0,3.0,89,0.00,,,0.00,,2013-01-13 16:53:00,
2013-01-13 09:02:00,30.0,24.0,30.24,North,355,0.0,1.0,79,0.00,,,0.00,,2013-01-13 17:02:00,
2013-01-13 09:12:00,30.0,24.0,30.24,North,355,0.0,1.0,79,0.00,,,0.00,,2013-01-13 17:12:00,
2013-01-13 09:22:00,33.0,25.0,30.24,North,355,0.0,1.0,72,0.00,,,0.00,,2013-01-13 17:22:00,
2013-01-13 09:32:00,36.0,25.0,30.24,ENE,71,1.0,3.0,65,0.00,,,0.00,,2013-01-13 17:32:00,
2013-01-13 09:42:00,36.0,25.0,30.24,ENE,71,1.0,3.0,65,0.00,,,0.00,,2013-01-13 17:42:00,
2013-01-13 09:52:00,37.0,26.0,30.24,WSW,255,1.0,4.0,63,0.00,,,0.00,,2013-01-13 17:52:00,
2013-01-13 10:02:00,38.0,25.0,30.24,WSW,254,1.0,3.0,60,0.00,,,0.00,,2013-01-13 18:02:00,
2013-01-13 10:12:00,38.0,25.0,30.24,WSW,254,1.0,3.0,60,0.00,,,0.00,,2013-01-13 18:12:00,
2013-01-13 10:22:00,41.0,24.0,30.23,SSW,208,1.0,3.0,51,0.00,,,0.00,,2013-01-13 18:22:00,
2013-01-13 10:32:00,41.0,21.0,30.22,East,93,2.0,5.0,44,0.00,,,0.00,,2013-01-13 18:32:00,
2013-01-13 10:42:00,41.0,21.0,30.22,East,93,2.0,5.0,44,0.00,,,0.00,,2013-01-13 18:42:00,
2013-01-13 10:53:00,42.0,20.0,30.22,ENE,74,2.0,3.0,41,0.00,,,0.00,,2013-01-13 18:53:00,
2013-01-13 11:02:00,43.0,20.0,30.22,East,101,1.0,4.0,40,0.00,,,0.00,,2013-01-13 19:02:00,
2013-01-13 11:11:00,43.0,20.0,30.22,East,101,1.0,4.0,40,0.00,,,0.00,,2013-01-13 19:11:00,
2013-01-13 11:22:00,43.0,20.0,30.22,NE,45,2.0,6.0,40,0.00,,,0.00,,2013-01-13 19:22:00,
2013-01-13 11:32:00,43.0,20.0,30.21,NE,38,2.0,5.0,40,0.00,,,0.00,,2013-01-13 19:32:00,
2013-01-13 11:42:00,43.0,20.0,30.21,NE,38,2.0,5.0,40,0.00,,,0.00,,2013-01-13 19:42:00,
2013-01-13 11:53:00,44.0,20.0,30.20,ENE,73,2.0,6.0,38,0.00,,,0.00,,2013-01-13 19:53:00,
2013-01-13 12:02:00,44.0,20.0,30.20,NE,53,2.0,5.0,38,0.00,,,0.00,,2013-01-13 20:02:00,
2013-01-13 12:11:00,44.0,20.0,30.20,NE,53,2.0,5.0,38,0.00,,,0.00,,2013-01-13 20:11:00,
2013-01-13 12:22:00,44.0,19.0,30.20,NE,40,2.0,6.0,37,0.00,,,0.00,,2013-01-13 20:22:00,
2013-01-13 12:32:00,47.0,21.0,30.18,WNW,292,1.0,4.0,35,0.00,,,0.00,,2013-01-13 20:32:00,
2013-01-13 12:42:00,47.0,21.0,30.18,WNW,292,1.0,4.0,35,0.00,,,0.00,,2013-01-13 20:42:00,
2013-01-13 12:53:00,46.0,20.0,30.17,ENE,59,4.0,5.0,35,0.00,,,0.00,,2013-01-13 20:53:00,
2013-01-13 13:02:00,46.0,20.0,30.17,NE,51,3.0,8.0,35,0.00,,,0.00,,2013-01-13 21:02:00,
2013-01-13 13:12:00,46.0,20.0,30.17,NE,51,3.0,8.0,35,0.00,,,0.00,,2013-01-13 21:12:00,
2013-01-13 13:22:00,46.0,18.0,30.17,North,5,3.0,7.0,32,0.00,,,0.00,,2013-01-13 21:22:00,
2013-01-13 13:32:00,46.0,18.0,30.16,NNE,21,4.0,9.0,32,0.00,,,0.00,,2013-01-13 21:32:00,
2013-01-13 13:42:00,46.0,18.0,30.16,NNE,21,4.0,9.0,32,0.00,,,0.00,,2013-01-13 21:42:00,
2013-01-13 13:53:00,47.0,20.0,30.16,NNW,341,5.0,8.0,34,0.00,,,0.00,,2013-01-13 21:53:00,
2013-01-13 14:02:00,46.0,21.0,30.16,WNW,303,4.0,8.0,36,0.00,,,0.00,,2013-01-13 22:02:00,
2013-01-13 14:11:00,46.0,21.0,30.16,WNW,303,4.0,8.0,36,0.00,,,0.00,,2013-01-13 22:11:00,
2013-01-13 14:22:00,47.0,21.0,30.16,West,270,2.0,5.0,35,0.00,,,0.00,,2013-01-13 22:22:00,
2013-01-13 14:32:00,47.0,21.0,30.16,WNW,290,1.0,4.0,36,0.00,,,0.00,,2013-01-13 22:32:00,
2013-01-13 14:42:00,47.0,21.0,30.16,WNW,290,1.0,4.0,36,0.00,,,0.00,,2013-01-13 22:42:00,
2013-01-13 14:52:00,47.0,20.0,30.15,NE,44,3.0,4.0,34,0.00,,,0.00,,2013-01-13 22:52:00,
2013-01-13 15:02:00,47.0,20.0,30.16,NNE,30,2.0,4.0,34,0.00,,,0.00,,2013-01-13 23:02:00,
2013-01-13 15:12:00,47.0,20.0,30.16,NNE,30,2.0,4.0,34,0.00,,,0.00,,2013-01-13 23:12:00,
2013-01-13 15:22:00,48.0,22.0,30.15,East,84,3.0,7.0,35,0.00,,,0.00,,2013-01-13 23:22:00,
2013-01-13 15:32:00,48.0,20.0,30.15,ENE,67,2.0,5.0,33,0.00,,,0.00,,2013-01-13 23:32:00,
2013-01-13 15:42:00,48.0,20.0,30.15,ENE,67,2.0,5.0,33,0.00,,,0.00,,2013-01-13 23:42:00,
2013-01-13 15:53:00,46.0,21.0,30.15,NNE,13,3.0,6.0,36,0.00,,,0.00,,2013-01-13 23:53:00,
2013-01-13 16:02:00,46.0,21.0,30.15,NE,44,2.0,4.0,37,0.00,,,0.00,,2013-01-14 00:02:00,
2013-01-13 16:12:00,46.0,21.0,30.15,NE,44,2.0,4.0,37,0.00,,,0.00,,2013-01-14 00:12:00,
2013-01-13 16:22:00,46.0,22.0,30.15,East,91,1.0,5.0,38,0.00,,,0.00,,2013-01-14 00:22:00,
2013-01-13 16:32:00,46.0,20.0,30.14,NE,46,2.0,4.0,35,0.00,,,0.00,,2013-01-14 00:32:00,
2013-01-13 16:42:00,46.0,20.0,30.14,NE,46,2.0,4.0,35,0.00,,,0.00,,2013-01-14 00:42:00,
2013-01-13 16:52:00,46.0,21.0,30.15,NE,46,6.0,10.0,37,0.00,,,0.00,,2013-01-14 00:52:00,
2013-01-13 17:02:00,45.0,22.0,30.15,NE,36,4.0,6.0,40,0.00,,,0.00,,2013-01-14 01:02:00,
2013-01-13 17:12:00,45.0,22.0,30.15,NE,36,4.0,6.0,40,0.00,,,0.00,,2013-01-14 01:12:00,
2013-01-13 17:22:00,44.0,22.0,30.15,NE,40,2.0,6.0,41,0.00,,,0.00,,2013-01-14 01:22:00,
2013-01-13 17:32:00,43.0,22.0,30.15,NE,54,1.0,5.0,43,0.00,,,0.00,,2013-01-14 01:32:00,
2013-01-13 17:42:00,43.0,22.0,30.15,NE,54,1.0,5.0,43,0.00,,,0.00,,2013-01-14 01:42:00,
2013-01-13 17:52:00,42.0,23.0,30.15,NE,56,0.0,1.0,46,0.00,,,0.00,,2013-01-14 01:52:00,
2013-01-13 18:02:00,41.0,23.0,30.16,NE,43,1.0,4.0,48,0.00,,,0.00,,2013-01-14 02:02:00,
2013-01-13 18:12:00,40.0,22.0,30.16,NE,44,0.0,2.0,49,0.00,,,0.00,,2013-01-14 02:12:00,
2013-01-13 18:22:00,40.0,22.0,30.16,NE,44,0.0,2.0,49,0.00,,,0.00,,2013-01-14 02:22:00,
2013-01-13 18:32:00,39.0,23.0,30.16,ENE,76,1.0,3.0,52,0.00,,,0.00,,2013-01-14 02:32:00,
2013-01-13 18:42:00,39.0,23.0,30.16,ENE,76,1.0,3.0,52,0.00,,,0.00,,2013-01-14 02:42:00,
2013-01-13 18:53:00,38.0,23.0,30.16,ENE,76,0.0,2.0,54,0.00,,,0.00,,2013-01-14 02:53:00,
2013-01-13 19:02:00,38.0,23.0,30.15,East,92,0.0,3.0,55,0.00,,,0.00,,2013-01-14 03:02:00,
2013-01-13 19:12:00,38.0,23.0,30.15,East,92,0.0,3.0,55,0.00,,,0.00,,2013-01-14 03:12:00,
2013-01-13 19:22:00,37.0,22.0,30.16,ESE,102,1.0,3.0,55,0.00,,,0.00,,2013-01-14 03:22:00,
2013-01-13 19:32:00,37.0,23.0,30.15,SE,132,0.0,2.0,56,0.00,,,0.00,,2013-01-14 03:32:00,
2013-01-13 19:42:00,37.0,23.0,30.15,SE,132,0.0,2.0,56,0.00,,,0.00,,2013-01-14 03:42:00,
2013-01-13 19:53:00,37.0,23.0,30.16,SE,132,0.0,2.0,57,0.00,,,0.00,,2013-01-14 03:53:00,
2013-01-13 20:02:00,36.0,22.0,30.16,SE,132,1.0,3.0,57,0.00,,,0.00,,2013-01-14 04:02:00,
2013-01-13 20:11:00,36.0,22.0,30.16,SE,132,1.0,3.0,57,0.00,,,0.00,,2013-01-14 04:11:00,
2013-01-13 20:22:00,36.0,21.0,30.16,SE,128,1.0,2.0,55,0.00,,,0.00,,2013-01-14 04:22:00,
2013-01-13 20:32:00,36.0,20.0,30.17,SE,128,1.0,2.0,52,0.00,,,0.00,,2013-01-14 04:32:00,
2013-01-13 20:42:00,36.0,20.0,30.17,SE,128,1.0,2.0,52,0.00,,,0.00,,2013-01-14 04:42:00,
2013-01-13 20:53:00,37.0,18.0,30.17,NE,35,3.0,5.0,45,0.00,,,0.00,,2013-01-14 04:53:00,
2013-01-13 21:03:00,40.0,16.0,30.17,North,10,5.0,9.0,38,0.00,,,0.00,,2013-01-14 05:03:00,
2013-01-13 21:12:00,40.0,16.0,30.17,North,10,5.0,9.0,38,0.00,,,0.00,,2013-01-14 05:12:00,
2013-01-13 21:22:00,41.0,15.0,30.17,NNE,33,5.0,8.0,35,0.00,,,0.00,,2013-01-14 05:22:00,
2013-01-13 21:32:00,42.0,16.0,30.17,NNE,13,6.0,14.0,34,0.00,,,0.00,,2013-01-14 05:32:00,
2013-01-13 21:42:00,42.0,16.0,30.17,NNE,13,6.0,14.0,34,0.00,,,0.00,,2013-01-14 05:42:00,
2013-01-13 21:52:00,42.0,16.0,30.16,NE,38,6.0,9.0,34,0.00,,,0.00,,2013-01-14 05:52:00,
2013-01-13 22:02:00,42.0,16.0,30.17,North,360,6.0,12.0,34,0.00,,,0.00,,2013-01-14 06:02:00,
2013-01-13 22:11:00,42.0,16.0,30.17,North,360,6.0,12.0,34,0.00,,,0.00,,2013-01-14 06:11:00,
2013-01-13 22:22:00,42.0,15.0,30.17,North,360,6.0,13.0,33,0.00,,,0.00,,2013-01-14 06:22:00,
2013-01-13 22:32:00,42.0,15.0,30.17,North,360,4.0,8.0,33,0.00,,,0.00,,2013-01-14 06:32:00,
2013-01-13 22:42:00,42.0,15.0,30.17,North,360,4.0,8.0,33,0.00,,,0.00,,2013-01-14 06:42:00,
2013-01-13 22:52:00,41.0,16.0,30.17,NNE,33,2.0,5.0,36,0.00,,,0.00,,2013-01-14 06:52:00,
2013-01-13 23:01:00,40.0,15.0,30.17,NNE,13,0.0,3.0,36,0.00,,,0.00,,2013-01-14 07:01:00,
2013-01-13 23:11:00,40.0,15.0,30.17,NNE,13,0.0,3.0,36,0.00,,,0.00,,2013-01-14 07:11:00,
2013-01-13 23:22:00,38.0,18.0,30.18,SE,142,0.0,2.0,44,0.00,,,0.00,,2013-01-14 07:22:00,
2013-01-13 23:32:00,35.0,17.0,30.19,SE,142,0.0,2.0,48,0.00,,,0.00,,2013-01-14 07:32:00,
2013-01-13 23:42:00,35.0,17.0,30.19,SE,142,0.0,2.0,48,0.00,,,0.00,,2013-01-14 07:42:00,
2013-01-13 23:52:00,34.0,17.0,30.19,East,84,0.0,3.0,49,0.00,,,0.00,,2013-01-14 07:52:00,